Weather History for Big Piney, WY

Change the Weather History Date:

Thursday, April 25, 2013

  Actual Average Record
Temperature  
Mean Temperature 36 °F 40 °F  
Max Temperature 56 °F 55 °F 71 °F (2012)
Min Temperature 15 °F 24 °F 14 °F (2000)
Degree Days  
Heating Degree Days 29 25  
Month to date heating degree days 815 713  
Since 1 July heating degree days 8797 9408  
Cooling Degree Days 0 0  
Month to date cooling degree days 0 0  
Year to date cooling degree days 0 0  
Moisture  
Dew Point 15 °F    
Average Humidity 49    
Maximum Humidity 84    
Minimum Humidity 13    
Precipitation  
Precipitation 0.00 in 0.02 in 0.26 in (1999)
Month to date precipitation 0.25 0.41  
Year to date precipitation 0.44 1.51  
Sea Level Pressure  
Sea Level Pressure 30.04 in    
Wind  
Wind Speed 7 mph (North)    
Max Wind Speed 20 mph    
Max Gust Speed 36 mph    
Visibility 10 miles    
Events      
T = Trace of Precipitation, MM = Missing Value Source: NWS Daily Summary

Daily Weather History Graph

Daily Weather History Graph

Search for Another Location

Airport:

Trip Planner

Search our weather history database for the weather conditions in past years. The results will help you decide how hot, cold, wet, or windy it might be!

Date:

Astronomy

Apr. 25, 2013 Rise Set
Actual Time 6:23 AM MDT 8:14 PM MDT
Civil Twilight 5:53 AM MDT 8:44 PM MDT
Nautical Twilight 5:16 AM MDT 9:21 PM MDT
Astronomical Twilight 4:36 AM MDT 10:01 PM MDT
Moon 8:32 PM MDT (4/25) 6:08 AM MDT (4/25)
Length of Visible Light 14h 51m
Length of Day
13h 50m
Full, 100% of the Moon is Illuminated
Apr 25
Full
Apr 25
Full
May 2
Last Quarter
May 9
New
May 17
First Quarter

Hourly Weather History & Observations

Time (MDT) Temp. Windchill Dew Point Humidity Pressure Visibility Wind Dir Wind Speed Gust Speed Precip Events Conditions
12:53 AM 25.0 °F - 18.0 °F 75% 30.13 in 10.0 mi Calm Calm - N/A   Clear
1:53 AM 23.0 °F 17.0 °F 17.1 °F 78% 30.12 in 10.0 mi NNE 4.6 mph - N/A   Clear
2:53 AM 21.0 °F - 17.1 °F 85% 30.10 in 10.0 mi Calm Calm - N/A   Clear
3:53 AM 21.0 °F - 16.0 °F 81% 30.08 in 10.0 mi Calm Calm - N/A   Clear
4:53 AM 19.9 °F 13.4 °F 15.1 °F 81% 30.08 in 10.0 mi NE 4.6 mph - N/A   Clear
5:53 AM 18.0 °F 11.1 °F 14.0 °F 84% 30.09 in 10.0 mi NNW 4.6 mph - N/A   Clear
6:53 AM 19.9 °F - 14.0 °F 78% 30.08 in 10.0 mi Calm Calm - N/A   Clear
7:53 AM 25.0 °F - 19.9 °F 81% 30.09 in 10.0 mi Calm Calm - N/A   Clear
8:53 AM 32.0 °F 26.4 °F 21.9 °F 66% 30.09 in 10.0 mi East 5.8 mph - N/A   Clear
9:53 AM 36.0 °F 32.1 °F 18.0 °F 48% 30.09 in 10.0 mi SE 4.6 mph - N/A   Clear
10:53 AM 39.9 °F - 19.0 °F 43% 30.06 in 10.0 mi Calm Calm - N/A   Clear
11:53 AM 46.0 °F 42.5 °F 10.0 °F 23% 30.00 in 10.0 mi Variable 6.9 mph 23.0 mph N/A   Clear
12:53 PM 48.0 °F - 10.9 °F 22% 29.98 in 10.0 mi SW 4.6 mph - N/A   Clear
1:53 PM 48.9 °F - 10.9 °F 22% 29.97 in 10.0 mi Variable 4.6 mph - N/A   Clear
2:53 PM 53.1 °F - 10.9 °F 19% 29.95 in 10.0 mi NNE 4.6 mph - N/A   Clear
3:53 PM 55.0 °F - 6.1 °F 14% 29.93 in 10.0 mi NW 11.5 mph - N/A   Clear
4:53 PM 54.0 °F - 3.9 °F 13% 29.94 in 10.0 mi NNW 12.7 mph - N/A   Clear
5:53 PM 55.0 °F - 6.1 °F 14% 29.95 in 10.0 mi NNW 16.1 mph 23.0 mph N/A   Clear
6:53 PM 52.0 °F - 10.0 °F 19% 29.99 in 10.0 mi NW 16.1 mph - N/A   Clear
7:53 PM 45.0 °F 41.2 °F 17.1 °F 33% 30.01 in 10.0 mi North 6.9 mph - N/A   Clear
8:53 PM 37.0 °F 29.8 °F 19.9 °F 50% 30.04 in 10.0 mi North 10.4 mph - N/A   Clear
9:53 PM 32.0 °F 23.0 °F 19.9 °F 61% 30.09 in 10.0 mi North 11.5 mph - N/A   Clear
10:53 PM 30.0 °F 20.5 °F 18.0 °F 61% 30.09 in 10.0 mi NNW 11.5 mph - N/A   Clear
11:53 PM 28.9 °F 19.2 °F 19.0 °F 67% 30.06 in 10.0 mi North 11.5 mph - N/A   Clear